History for ZBTJ

Tianjin, TJ

Daily Weekly Monthly
Daily Summary for Monday, March 25, 2019
  Actual: Average: Record:
Temperature
Mean Temperature: 58 °F / 14 °C - :  
Max Temperature: 71 °F / 22 °C 58 °F / 14 °C 78 °F / 25 °C (2018)
Min Temperature: 44 °F / 7 °C 38 °F / 3 °C 28 °F / -2 °C (2013)
Degree Days
Heating Degree Days: 8    
Growing Degree Days 8 (Base 50)    
Moisture
Dew Point 20 °F / -7 °C    
Average Humidity 29    
Maximum Humidity 66    
Minimum Humidity 6    
Precipitation
Precipitation 0.00 in / 0.0 cm - - ()
Sea Level Pressure
Sea Level Pressure 29.86 in / 1011.02 hPa   
Wind
Wind Speed 8 mph / 12 km/h ()  
Max Wind Speed 20 mph / 32 km/h   
Max Gust Speed -   
Visibility 4.1 miles / 6.5 kilometers   
Events     
Averages and records for this station are not official NWS values.
Key: T is trace of precipitation, MM is missing value
Source: Averaged Metar Reports
Seasonal Weather Averages

Graphs

Observations

History Graphs Observations

Obs Go Here...

Features

Weather Apps

WunderRadio

Weather Underground Apps
Check out our wide variety of mobile and setup applications.

Weather Underground Applications

Top of Page

© Copyright 2019
The Weather Company, LLC
Time(CST)TemperatureDew PointHumidity Sea Level Pressure Visibility Wind DirectionWind SpeedGust SpeedPrecipitationEvents Conditions
12:00 AM 55.4 °F / 13.0 °C 33.8 °F / 1.0 °C 44% 29.86 in / 1011 hPa - WSW 13.4 mph / 21.6 km/h - N/A   Clear
12:30 AM 55.4 °F / 13.0 °C 33.8 °F / 1.0 °C 44% 29.86 in / 1011 hPa - WSW 8.9 mph / 14.4 km/h - N/A   Clear
1:00 AM 55.4 °F / 13.0 °C 33.8 °F / 1.0 °C 44% 29.86 in / 1011 hPa - West 8.9 mph / 14.4 km/h - N/A   Clear
1:30 AM 53.6 °F / 12.0 °C 33.8 °F / 1.0 °C 47% 29.86 in / 1011 hPa - WSW 8.9 mph / 14.4 km/h - N/A   Clear
2:30 AM 53.6 °F / 12.0 °C 33.8 °F / 1.0 °C 47% 29.83 in / 1010 hPa 5.0 miles / 8.0 kilometers West 8.9 mph / 14.4 km/h - N/A   Unknown
3:00 AM 51.8 °F / 11.0 °C 32.0 °F / 0.0 °C 47% 29.83 in / 1010 hPa 5.0 miles / 8.0 kilometers West 6.7 mph / 10.8 km/h - N/A   Unknown
3:30 AM 51.8 °F / 11.0 °C 32.0 °F / 0.0 °C 47% 29.83 in / 1010 hPa 5.0 miles / 8.0 kilometers WSW 6.7 mph / 10.8 km/h - N/A   Unknown
4:00 AM 50.0 °F / 10.0 °C 32.0 °F / 0.0 °C 50% 29.83 in / 1010 hPa 5.0 miles / 8.0 kilometers SW 4.5 mph / 7.2 km/h - N/A   Unknown
4:30 AM 48.2 °F / 9.0 °C 33.8 °F / 1.0 °C 58% 29.83 in / 1010 hPa 5.0 miles / 8.0 kilometers WSW 6.7 mph / 10.8 km/h - N/A   Unknown
5:00 AM 48.2 °F / 9.0 °C 33.8 °F / 1.0 °C 58% 29.83 in / 1010 hPa 5.0 miles / 8.0 kilometers WSW 6.7 mph / 10.8 km/h - N/A   Unknown
5:30 AM 44.6 °F / 7.0 °C 32.0 °F / 0.0 °C 61% 29.83 in / 1010 hPa 3.1 miles / 5.0 kilometers SW 4.5 mph / 7.2 km/h - N/A   Haze
6:00 AM 46.4 °F / 8.0 °C 33.8 °F / 1.0 °C 62% 29.83 in / 1010 hPa 3.1 miles / 5.0 kilometers SW 4.5 mph / 7.2 km/h - N/A   Haze
6:30 AM 44.6 °F / 7.0 °C 33.8 °F / 1.0 °C 66% 29.83 in / 1010 hPa 3.1 miles / 5.0 kilometers Variable 2.2 mph / 3.6 km/h - N/A   Haze
7:00 AM 48.2 °F / 9.0 °C 35.6 °F / 2.0 °C 62% 29.86 in / 1011 hPa 3.1 miles / 5.0 kilometers West 4.5 mph / 7.2 km/h - N/A   Haze
7:30 AM 51.8 °F / 11.0 °C 35.6 °F / 2.0 °C 54% 29.86 in / 1011 hPa 3.1 miles / 5.0 kilometers West 4.5 mph / 7.2 km/h - N/A   Haze
8:00 AM 53.6 °F / 12.0 °C 33.8 °F / 1.0 °C 47% 29.86 in / 1011 hPa 3.1 miles / 5.0 kilometers WNW 4.5 mph / 7.2 km/h - N/A   Haze
8:30 AM 55.4 °F / 13.0 °C 33.8 °F / 1.0 °C 44% 29.86 in / 1011 hPa 3.7 miles / 6.0 kilometers West 6.7 mph / 10.8 km/h - N/A   Unknown
9:00 AM 59.0 °F / 15.0 °C 30.2 °F / -1.0 °C 34% 29.86 in / 1011 hPa 3.7 miles / 6.0 kilometers West 6.7 mph / 10.8 km/h - N/A   Unknown
9:30 AM 62.6 °F / 17.0 °C 28.4 °F / -2.0 °C 27% 29.89 in / 1012 hPa 3.7 miles / 6.0 kilometers WNW 8.9 mph / 14.4 km/h - N/A   Unknown
10:00 AM 66.2 °F / 19.0 °C 21.2 °F / -6.0 °C 18% 29.89 in / 1012 hPa 4.3 miles / 7.0 kilometers NW 13.4 mph / 21.6 km/h - N/A   Unknown
10:30 AM 68.0 °F / 20.0 °C 15.8 °F / -9.0 °C 13% 29.89 in / 1012 hPa 5.0 miles / 8.0 kilometers NNW 15.7 mph / 25.2 km/h - N/A   Unknown
11:00 AM 69.8 °F / 21.0 °C 5.0 °F / -15.0 °C 8% 29.89 in / 1012 hPa - North 20.1 mph / 32.4 km/h - N/A   Clear
11:30 AM 69.8 °F / 21.0 °C 5.0 °F / -15.0 °C 8% 29.86 in / 1011 hPa - North 15.7 mph / 25.2 km/h - N/A   Clear
12:00 PM 71.6 °F / 22.0 °C 6.8 °F / -14.0 °C 8% 29.86 in / 1011 hPa - NNW 17.9 mph / 28.8 km/h - N/A   Clear
12:30 PM 71.6 °F / 22.0 °C 3.2 °F / -16.0 °C 7% 29.86 in / 1011 hPa - NNW 20.1 mph / 32.4 km/h - N/A   Clear
1:00 PM 71.6 °F / 22.0 °C 5.0 °F / -15.0 °C 7% 29.86 in / 1011 hPa - NNW 13.4 mph / 21.6 km/h - N/A   Clear
1:30 PM 71.6 °F / 22.0 °C 3.2 °F / -16.0 °C 7% 29.86 in / 1011 hPa - NNW 11.2 mph / 18.0 km/h - N/A   Clear
2:00 PM 71.6 °F / 22.0 °C 6.8 °F / -14.0 °C 8% 29.83 in / 1010 hPa - NW 11.2 mph / 18.0 km/h - N/A   Clear
2:30 PM 71.6 °F / 22.0 °C 5.0 °F / -15.0 °C 7% 29.83 in / 1010 hPa - NW 11.2 mph / 18.0 km/h - N/A   Clear
3:00 PM 71.6 °F / 22.0 °C 5.0 °F / -15.0 °C 7% 29.83 in / 1010 hPa - WNW 8.9 mph / 14.4 km/h - N/A   Clear
3:30 PM 71.6 °F / 22.0 °C 5.0 °F / -15.0 °C 7% 29.83 in / 1010 hPa - WNW 4.5 mph / 7.2 km/h - N/A   Clear
4:00 PM 71.6 °F / 22.0 °C 5.0 °F / -15.0 °C 7% 29.80 in / 1009 hPa - NNE 6.7 mph / 10.8 km/h - N/A   Clear
4:30 PM 71.6 °F / 22.0 °C 1.4 °F / -17.0 °C 6% 29.83 in / 1010 hPa - North 4.5 mph / 7.2 km/h - N/A   Clear
5:00 PM 71.6 °F / 22.0 °C 5.0 °F / -15.0 °C 7% 29.83 in / 1010 hPa - North 6.7 mph / 10.8 km/h - N/A   Clear
5:30 PM 71.6 °F / 22.0 °C -0.4 °F / -18.0 °C 6% 29.83 in / 1010 hPa - NNW 4.5 mph / 7.2 km/h - N/A   Clear
6:00 PM 68.0 °F / 20.0 °C 1.4 °F / -17.0 °C 7% 29.83 in / 1010 hPa - Calm Calm - N/A   Clear
6:30 PM 64.4 °F / 18.0 °C 5.0 °F / -15.0 °C 10% 29.83 in / 1010 hPa - Variable 2.2 mph / 3.6 km/h - N/A   Clear
7:00 PM 66.2 °F / 19.0 °C 5.0 °F / -15.0 °C 9% 29.86 in / 1011 hPa - Variable 2.2 mph / 3.6 km/h - N/A   Clear
7:30 PM 57.2 °F / 14.0 °C 21.2 °F / -6.0 °C 25% 29.86 in / 1011 hPa - SSE 8.9 mph / 14.4 km/h - N/A   Clear
8:00 PM 57.2 °F / 14.0 °C 19.4 °F / -7.0 °C 23% 29.89 in / 1012 hPa - SSE 8.9 mph / 14.4 km/h - N/A   Clear
8:30 PM 57.2 °F / 14.0 °C 23.0 °F / -5.0 °C 27% 29.89 in / 1012 hPa - ESE 6.7 mph / 10.8 km/h - N/A   Clear
9:00 PM 55.4 °F / 13.0 °C 24.8 °F / -4.0 °C 31% 29.92 in / 1013 hPa - SE 4.5 mph / 7.2 km/h - N/A   Clear
9:30 PM 51.8 °F / 11.0 °C 23.0 °F / -5.0 °C 33% 29.92 in / 1013 hPa - SSE 6.7 mph / 10.8 km/h - N/A   Clear
10:00 PM 51.8 °F / 11.0 °C 24.8 °F / -4.0 °C 35% 29.92 in / 1013 hPa - South 6.7 mph / 10.8 km/h - N/A   Clear
10:30 PM 53.6 °F / 12.0 °C 23.0 °F / -5.0 °C 30% 29.95 in / 1014 hPa - Variable 2.2 mph / 3.6 km/h - N/A   Clear
11:00 PM 50.0 °F / 10.0 °C 21.2 °F / -6.0 °C 32% 29.95 in / 1014 hPa - Calm Calm - N/A   Clear
11:30 PM 48.2 °F / 9.0 °C 21.2 °F / -6.0 °C 34% 29.95 in / 1014 hPa - SSW 2.2 mph / 3.6 km/h - N/A   Clear